Portada
METAR-TAF:

METAR-TAF

Aeropuertos :

Laurel, Misisipi, Estados Unidos

latitud: 31-40-23N, longitud: 089-10-22W, altitud: 73 m

Observación

El informe se hizo hace 33 minutos, a las 10:55 UTC
Viento calma
Temperatura 4°C
Humedad 100%
Presión 1025 hPa
Visibilidad: 16.1 km
Cielo despejado

METAR: KLUL 231055Z AUTO 00000KT 10SM CLR 04/04 A3027 RMK A02 T00420038

Hora: 05:28 (11:28 UTC)


TAF: falta

Observaciones y pronósticos meteorológicos de más de 4000 aeropuertos (mensajes METAR y TAF).

Los puntos amarillos y rojos representan las estaciones disponibles.

Ponga el ratón en el punto deseado para ver el nombre de la estación.

Haga clic para ver las observaciones y los pronósticos meteorológicos.

Para cambiar el mapa : haga clic en los botones verdes con una cruz de color negro para hacer un zoom, en el botón verde con un guión para alejar o en las flechas verdes para mapas adyacentes.


METAR-TAF: